Bangabandhu 1

operational
NORAD ID: 43463 Int'l Des: 2018-044 Owner: BCSCL Country: BD
HEOCIRCULARGSOGEO

关于 Bangabandhu 1

正在加载描述...

实时位置

正在加载3D地球...

即将过境

高度历史

Altitude vs Time

uPlot chart will show altitude changes over time

两行轨道根数

1 43463U 18044A 26073.02155584 -.00000363 00000-0 00000-0 0 9998
2 43463 0.0183 120.1776 0002488 246.8356 291.4753 1.00273349 28756
Epoch: Mar 14, 2026 • Age: 14 hours

当前状态

高度 35794.3 km
速度 3.07 km/s
星下点 0.01°N, 119.12°E
发射日期 May 11, 2018
运行时间 7.8 years
类型 other

技术详情

分类 Payload
质量 3700.00 kg
干质量 2000.00 kg
总质量 3700.00 kg
长度 5.00 m
直径 2.50 m
跨度 38.00 m
形状 Box + 2 Pan
制造商 THALES
平台类型 Spacebus 4000B2
阶段状态 In Orbit
所有者/国家 BCSCL/BD

大型星座

Loading constellations...